Weather in Spittal an der Drau

Austria     46°47′58″N   13°29′34″E
temp.,
°C
wind,
m/s
gust,
m/s
humid.,
%
clouds,
%
prec.,
mm/h
press.,
hPa
HPBL,
m
28 january, fri
fri2801:00−4nw238238 0.0 102547
04:00−4nnw2386100 0.0 102462
07:00−5n238931 0.1 102737
10:000nw25720 0.0 1027542
13:00+1nnw312622 0.1 10262336
16:00−1nnw24752 0.0 102884
19:00−7nnw229053 0.0 103326
22:00−8nnw338812 0.0 103647
29 january, sat
sat2901:00−9nnw23895 0.0 103736
04:00−10nnw22925 0.0 103632
07:00−10nnw229038 0.0 103627
10:00−2nnw127089 0.0 1032148
13:00+1sw127228 0.0 1029329
16:00+1wsw11875 0.0 102720
19:00−5nw22896 0.0 103031
22:00−6nw22905 0.0 102929
30 january, sun
sun3001:00−5nw22915 0.0 102631
04:00−5wnw22915 0.0 102435
07:00−3nw22915 0.0 102335
10:00+3nw24890 0.0 1020113
13:00+6n13796 0.0 1018333
16:00+2n23850 0.0 102064
19:00−4nnw23895 0.0 102547
22:00−5nnw23905 0.0 102642
31 january, mon
mon3101:00−7nnw22875 0.0 102533
04:00−7nnw218371 0.0 102222
07:00−5nw1180100 0.0 101730
10:00−1w1263100 0.0 1012145
13:00+1ssw116595 0.0 1008393
16:00+1ne128157 0.0 100734
19:00−5n238611 0.1 101036
22:00−5nnw238513 0.0 101140
1 february, tue
tue101:00−5nnw23855 0.0 101150
04:00−5nnw24855 0.0 101283
07:00−5nnw34818 0.0 101477
10:00−1nnw26591 0.0 10131173
13:00+1nnw37455 0.0 10121815
16:00−1n23622 0.0 1014158
19:00−6nnw23835 0.0 101862
22:00−5nw2381100 0.0 101679